Location: Goheenville
(40.9070°N, 79.3720°W)
Time: 21:48:01
(UTC-05:00)

Cosmos 1727 Rocket - Visible Passes

Search period start: 05 February 2016 00:00
Search period end: 15 February 2016 00:00
Orbit: 961 x 996 km, 82.9° (Epoch: 05 February)

Date Brightness Start Highest point End Pass type
(mag) Time Alt. Az. Time Alt. Az. Time Alt. Az.
05 Feb 6.9 05:19:05 10° ESE 05:22:37 16° E 05:26:11 10° NE visible
05 Feb 4.1 17:57:39 10° N 18:04:00 88° E 18:10:14 10° S visible
05 Feb 7.0 19:45:50 10° NW 19:48:27 13° WNW 19:51:03 10° WSW visible
06 Feb 6.1 05:43:14 10° SE 05:48:33 29° E 05:53:53 10° NNE visible
06 Feb 5.0 18:24:12 10° NNW 18:30:15 51° W 18:36:14 10° SSW visible
07 Feb 4.9 06:08:31 10° SSE 06:14:39 54° E 06:20:48 10° NNE visible
07 Feb 6.2 18:51:10 10° NNW 18:56:20 28° W 19:01:26 10° SW visible
08 Feb 7.0 04:53:22 10° ESE 04:56:24 14° E 04:59:26 10° NE visible
08 Feb 4.1 06:34:34 10° S 06:40:55 85° W 06:47:19 10° N visible
08 Feb 7.0 19:19:03 10° NW 19:22:14 14° W 19:25:23 10° WSW visible
09 Feb 6.2 05:17:11 10° SE 05:22:17 26° E 05:27:25 10° NNE visible
10 Feb 5.1 05:42:19 10° SSE 05:48:21 48° E 05:54:25 10° NNE visible
10 Feb 6.1 18:24:43 10° NNW 18:30:03 30° W 18:35:22 10° SW visible
11 Feb 7.0 04:27:49 10° E 04:30:11 12° ENE 04:32:32 10° NE visible
11 Feb 4.1 06:08:15 10° S 06:14:36 88° E 06:21:00 10° N visible
11 Feb 6.9 18:52:21 10° NW 18:55:59 16° W 18:59:37 10° WSW visible
12 Feb 6.3 04:51:10 10° SE 04:56:02 24° E 05:00:55 10° NNE visible
12 Feb 4.2 06:34:53 10° SSW 06:41:02 52° WNW 06:47:14 10° N visible
13 Feb 5.2 05:16:09 10° SSE 05:22:05 44° E 05:28:02 10° NNE visible
14 Feb 7.1 04:02:38 10° E 04:03:58 11° ENE 04:05:19 10° ENE visible
14 Feb 4.2 05:41:58 10° S 05:48:17 80° E 05:54:40 10° N visible
14 Feb 6.8 18:25:43 10° NW 18:29:45 18° W 18:33:45 10° WSW visible
